Temp
12 11 11 11 12 12 12 12 11 9 10 10 8 8 6 5 4 4 3 3 2 3 3 4 4 4 3 2 2 3 2 2 1 1 0 -0 -1 -2 -2 -3 -4 -4 -5 -5
12 12 12 12 12 12 12 11 10 10 10 9 8 7 7 5 4 4 3 2 3 3 3 4 3 3 3 2 2 2 2 1 1 -0 -1 -2 -2 -2 -3 -3 -4 -5 -5 -6
12 12 12 11 12 11 11 10 10 10 9 8 8 7 6 5 4 4 3 3 3 3 3 3 3 3 3 2 2 2 1 0 -0 -1 -1 -2 -2 -3 -3 -4 -5 -6 -6 -6
11 11 11 11 11 10 10 10 10 10 9 8 8 7 6 5 5 4 4 4 4 3 3 3 3 3 3 2 1 0 -0 -1 -1 -1 -2 -2 -2 -3 -4 -5 -5 -6 -6 -7
10 11 10 10 10 10 10 9 9 9 9 9 8 8 8 6 5 4 4 3 3 3 3 3 3 3 1 1 -0 -0 -1 -1 -1 -2 -2 -3 -3 -4 -5 -5 -5 -5 -6 -7
10 10 10 10 10 9 9 9 9 9 9 8 10 9 5 6 6 4 2 2 3 2 3 3 3 2 0 0 -1 -1 -1 -1 -2 -3 -3 -4 -4 -4 -5 -5 -5 -5 -6 -7
9 9 9 9 9 9 9 8 9 7 7 7 11 9 5 5 5 4 3 2 2 3 3 2 2 0 0 -0 -1 -2 -2 -2 -3 -3 -4 -4 -5 -5 -5 -5 -5 -6 -7 -7
9 8 8 9 9 9 8 8 8 7 6 8 10 5 4 4 5 4 3 3 4 3 3 2 1 0 -0 -1 -1 -2 -2 -3 -3 -4 -4 -5 -5 -5 -6 -6 -6 -7 -7 -8
10 9 8 8 9 9 8 8 8 8 9 8 7 4 3 4 4 4 4 4 4 3 2 1 0 -0 -1 -2 -2 -2 -3 -4 -4 -4 -5 -5 -5 -5 -6 -6 -7 -7 -8 -9
10 9 8 9 8 8 8 8 8 8 6 7 8 5 5 6 5 5 4 4 3 2 1 1 -0 -1 -2 -2 -2 -3 -4 -4 -5 -5 -6 -6 -5 -6 -6 -7 -7 -8 -9 -9
10 9 8 8 8 8 8 7 7 7 8 5 3 5 5 5 5 4 4 3 2 2 1 0 -0 -1 -2 -2 -3 -3 -4 -5 -5 -6 -6 -6 -6 -6 -7 -7 -7 -8 -9 -10
8 8 8 8 8 8 8 7 7 7 7 6 6 5 4 5 4 3 3 2 2 1 1 -0 -1 -2 -2 -3 -4 -4 -5 -6 -6 -6 -7 -7 -6 -7 -7 -7 -8 -9 -9 -10
8 7 7 7 7 7 7 7 7 6 6 6 5 5 5 4 3 3 2 2 2 1 0 -1 -1 -3 -3 -4 -4 -5 -6 -6 -6 -7 -7 -7 -7 -7 -8 -8 -8 -9 -10 -11
7 7 7 7 6 6 6 6 6 6 5 5 5 5 5 5 3 2 1 1 1 1 -1 -2 -2 -3 -3 -4 -4 -5 -6 -7 -7 -7 -7 -7 -7 -8 -8 -8 -9 -9 -10 -11
7 7 7 7 6 6 6 6 6 6 5 5 5 5 5 4 2 1 1 0 0 0 -1 -2 -2 -3 -4 -4 -5 -6 -6 -7 -7 -7 -7 -8 -8 -8 -9 -9 -10 -10 -11 -12
6 6 6 6 6 5 5 5 5 5 4 4 5 5 4 4 2 1 1 1 1 -0 -2 -2 -3 -4 -4 -5 -6 -6 -7 -7 -7 -7 -8 -8 -9 -9 -9 -10 -10 -11 -12 -12
6 5 5 5 4 4 5 5 5 4 4 5 5 4 3 3 3 2 2 1 -0 -2 -3 -3 -4 -4 -5 -6 -6 -7 -7 -8 -8 -8 -8 -8 -9 -9 -9 -10 -11 -11 -12 -12
5 4 3 4 4 -1 4 4 5 4 4 4 4 3 2 2 1 0 0 -0 -2 -3 -3 -4 -4 -4 -5 -6 -6 -7 -8 -8 -8 -8 -9 -9 -9 -9 -10 -10 -11 -11 -12 -13
4 3 3 3 2 4 4 4 4 4 3 3 2 2 2 2 1 1 0 -1 -2 -3 -4 -4 -5 -5 -5 -6 -7 -8 -8 -8 -8 -9 -9 -9 -9 -10 -10 -10 -11 -11 -12 -13
3 3 3 1 1 -0 2 3 3 3 2 2 2 1 1 1 1 0 -1 -2 -3 -4 -4 -5 -5 -5 -6 -7 -7 -8 -8 -8 -9 -9 -9 -9 -10 -10 -10 -11 -11 -12 -13 -14
3 3 2 1 1 2 3 2 2 2 1 1 1 1 1 0 -1 -1 -2 -3 -4 -4 -5 -5 -5 -6 -7 -7 -8 -9 -9 -9 -9 -9 -10 -10 -10 -10 -11 -11 -12 -13 -13 -14
4 3 2 1 0 1 1 1 1 1 0 0 0 0 0 -1 -1 -2 -2 -3 -4 -4 -5 -6 -5 -6 -8 -8 -9 -9 -9 -9 -9 -10 -10 -10 -10 -10 -11 -12 -12 -13 -13 -14
3 2 3 2 2 1 1 1 0 0 1 -0 -0 -0 -1 -1 -2 -1 -2 -3 -4 -5 -6 -6 -6 -8 -8 -9 -9 -9 -9 -9 -10 -10 -10 -10 -10 -11 -11 -12 -12 -13 -13 -13
2 2 2 1 1 0 0 -0 -0 -0 -0 -1 -1 -1 -1 -1 -1 -1 -3 -4 -5 -6 -6 -7 -7 -8 -8 -9 -9 -9 -9 -10 -10 -10 -10 -10 -11 -11 -11 -12 -12 -13 -13 -13
2 1 1 1 1 1 0 -0 -1 -1 -1 -1 -2 -2 -2 -2 -2 -3 -4 -5 -6 -6 -7 -7 -7 -8 -9 -9 -10 -10 -10 -10 -10 -10 -10 -10 -11 -11 -11 -12 -12 -13 -13 -13
1 1 0 0 -0 -0 -0 -1 -1 -2 -2 -2 -2 -2 -2 -2 -3 -4 -5 -6 -6 -7 -7 -7 -8 -9 -9 -10 -10 -10 -10 -10 -10 -10 -10 -11 -11 -11 -11 -12 -12 -13 -14 -13
Height
3189 3191 3193 3193 3194 3195 3195 3194 3195 3197 3198 3197 3195 3195 3197 3198 3197 3196 3192 3189 3186 3183 3180 3178 3177 3173 3169 3163 3157 3151 3145 3138 3132 3124 3117 3109 3102 3093 3084 3078 3073 3063 3055 3047
3189 3188 3190 3192 3192 3192 3194 3193 3194 3195 3195 3196 3194 3194 3195 3194 3195 3193 3188 3186 3184 3183 3180 3175 3174 3169 3165 3157 3152 3146 3140 3133 3128 3120 3112 3104 3096 3089 3081 3074 3067 3059 3050 3042
3185 3187 3188 3190 3189 3191 3193 3193 3194 3193 3194 3194 3194 3193 3193 3193 3191 3188 3186 3183 3182 3181 3179 3173 3168 3168 3162 3155 3149 3143 3137 3130 3122 3115 3108 3100 3092 3084 3075 3067 3062 3052 3045 3038
3185 3186 3187 3188 3188 3191 3191 3191 3192 3192 3191 3191 3191 3191 3190 3187 3187 3186 3184 3182 3179 3178 3176 3172 3166 3163 3159 3153 3146 3139 3133 3127 3118 3110 3102 3094 3085 3078 3069 3063 3058 3050 3042 3034
3185 3185 3186 3187 3188 3189 3189 3190 3189 3189 3188 3188 3185 3186 3184 3184 3183 3183 3180 3178 3176 3176 3174 3169 3165 3160 3156 3149 3142 3135 3129 3122 3114 3105 3098 3091 3082 3076 3069 3062 3055 3047 3039 3031
3182 3183 3185 3185 3185 3186 3187 3188 3187 3187 3187 3185 3176 3181 3181 3179 3179 3179 3176 3174 3173 3174 3172 3167 3161 3156 3151 3146 3139 3131 3125 3118 3110 3101 3093 3087 3079 3073 3067 3060 3050 3041 3034 3028
3181 3182 3182 3183 3183 3185 3186 3186 3185 3188 3185 3181 3174 3177 3180 3179 3180 3176 3173 3172 3174 3173 3168 3164 3158 3153 3147 3142 3136 3129 3122 3114 3106 3098 3089 3082 3076 3070 3064 3057 3046 3038 3031 3025
3177 3180 3179 3180 3181 3182 3183 3184 3184 3184 3183 3179 3175 3177 3177 3177 3174 3174 3174 3176 3174 3169 3163 3159 3155 3151 3145 3137 3132 3126 3118 3110 3102 3094 3087 3078 3073 3068 3062 3054 3044 3036 3030 3022
3174 3175 3177 3179 3179 3181 3181 3182 3183 3181 3179 3177 3174 3176 3176 3177 3177 3177 3175 3175 3172 3166 3161 3157 3153 3148 3141 3133 3128 3122 3114 3106 3099 3091 3083 3076 3071 3065 3059 3051 3043 3035 3028 3022
3172 3174 3175 3176 3176 3177 3178 3180 3180 3180 3180 3177 3172 3171 3170 3172 3173 3172 3170 3169 3167 3162 3158 3153 3150 3144 3137 3130 3123 3118 3110 3102 3095 3088 3082 3075 3069 3063 3056 3049 3041 3034 3027 3021
3169 3171 3174 3174 3174 3174 3176 3176 3178 3178 3178 3176 3176 3171 3168 3167 3166 3165 3165 3162 3163 3160 3155 3149 3145 3139 3133 3126 3119 3113 3106 3099 3091 3085 3080 3074 3067 3061 3053 3046 3038 3031 3025 3019
3168 3168 3170 3172 3173 3173 3173 3174 3175 3175 3176 3174 3173 3169 3166 3165 3164 3163 3162 3161 3159 3156 3151 3146 3142 3135 3128 3122 3116 3110 3103 3095 3088 3083 3077 3073 3066 3058 3051 3044 3036 3030 3024 3018
3165 3167 3169 3171 3172 3170 3169 3171 3172 3173 3172 3171 3173 3167 3166 3165 3163 3162 3161 3157 3154 3151 3147 3141 3136 3131 3125 3120 3113 3106 3100 3093 3087 3082 3076 3070 3064 3057 3050 3042 3035 3029 3024 3017
3162 3164 3165 3167 3169 3169 3169 3169 3170 3170 3169 3168 3167 3165 3160 3159 3159 3157 3154 3152 3149 3146 3143 3138 3132 3126 3121 3115 3109 3104 3098 3091 3086 3080 3075 3069 3063 3055 3048 3041 3035 3029 3023 3017
3161 3162 3163 3164 3165 3165 3165 3165 3165 3164 3165 3164 3164 3161 3157 3156 3153 3151 3149 3148 3145 3143 3139 3134 3129 3123 3118 3112 3106 3101 3095 3089 3085 3079 3073 3068 3061 3054 3048 3041 3034 3028 3022 3015
3159 3160 3161 3162 3162 3161 3160 3160 3160 3159 3159 3158 3159 3156 3154 3154 3152 3152 3150 3148 3144 3140 3136 3131 3126 3120 3114 3109 3103 3097 3091 3087 3082 3077 3071 3066 3060 3054 3048 3041 3034 3028 3022 3015
3157 3158 3159 3159 3158 3157 3157 3155 3155 3155 3156 3154 3153 3152 3151 3151 3150 3152 3149 3146 3143 3139 3135 3128 3122 3117 3112 3105 3101 3095 3090 3085 3080 3075 3069 3064 3059 3053 3047 3041 3034 3028 3022 3015
3154 3156 3156 3156 3156 3157 3153 3153 3153 3153 3154 3153 3151 3148 3147 3148 3146 3145 3145 3143 3139 3135 3130 3125 3119 3114 3107 3102 3097 3092 3088 3083 3078 3073 3068 3063 3059 3053 3047 3040 3034 3028 3021 3014
3152 3154 3153 3155 3154 3152 3151 3147 3149 3150 3152 3150 3149 3147 3145 3146 3144 3143 3142 3139 3135 3131 3126 3120 3115 3110 3105 3098 3095 3092 3087 3082 3078 3073 3067 3063 3058 3053 3046 3040 3033 3027 3022 3016
3149 3150 3153 3152 3152 3150 3146 3147 3148 3148 3148 3147 3145 3143 3142 3142 3142 3139 3137 3133 3130 3125 3121 3116 3112 3106 3101 3095 3092 3088 3084 3080 3076 3071 3068 3063 3057 3051 3046 3039 3033 3027 3022 3016
3145 3146 3148 3148 3149 3145 3145 3143 3145 3147 3150 3144 3144 3143 3139 3136 3136 3134 3131 3128 3125 3121 3117 3112 3107 3103 3097 3093 3091 3087 3083 3078 3075 3070 3066 3063 3058 3051 3045 3039 3034 3029 3023 3018
3138 3143 3145 3146 3146 3143 3140 3142 3144 3143 3140 3140 3138 3138 3136 3132 3131 3129 3127 3123 3120 3117 3112 3107 3102 3100 3096 3091 3088 3084 3081 3077 3074 3070 3066 3063 3058 3052 3046 3040 3035 3030 3025 3021
3137 3138 3141 3145 3141 3139 3138 3138 3139 3139 3138 3135 3133 3131 3129 3126 3125 3123 3121 3118 3114 3111 3107 3102 3100 3097 3093 3090 3086 3083 3079 3076 3073 3071 3067 3063 3058 3053 3047 3042 3037 3031 3027 3023
3133 3133 3136 3139 3138 3136 3134 3132 3133 3133 3134 3130 3127 3126 3123 3119 3116 3117 3115 3112 3109 3107 3103 3099 3097 3093 3090 3087 3083 3082 3078 3076 3073 3071 3068 3064 3058 3053 3048 3043 3038 3033 3028 3023
3129 3131 3131 3132 3134 3134 3131 3128 3126 3126 3128 3127 3123 3120 3118 3115 3111 3111 3108 3106 3102 3101 3098 3094 3092 3088 3086 3084 3082 3080 3078 3075 3074 3072 3068 3064 3059 3055 3050 3044 3039 3034 3029 3024
3124 3125 3124 3125 3128 3129 3128 3126 3123 3121 3120 3120 3117 3115 3112 3109 3108 3107 3104 3102 3098 3097 3094 3090 3088 3085 3083 3080 3079 3079 3077 3076 3074 3072 3069 3065 3060 3056 3051 3045 3040 3035 3030 3026
Wind_Speed
5 3 9 16 12 5 4 10 14 9 5 8 6 9 12 17 16 16 19 20 21 24 26 26 28 30 36 35 35 37 37 39 41 43 45 44 43 45 45 45 41 42 40 39
8 10 15 9 5 3 7 1 4 2 7 4 12 11 11 16 14 18 19 21 23 22 22 29 29 33 39 37 38 38 38 39 41 42 42 42 43 44 43 42 36 35 35 38
12 11 7 3 4 7 5 6 4 4 4 6 8 14 18 18 20 24 25 26 27 22 23 29 33 36 37 37 38 38 38 40 42 43 43 42 44 44 44 41 34 36 38 37
8 9 6 8 8 8 9 12 10 4 7 7 16 7 26 28 27 29 28 30 27 24 26 29 34 42 36 35 36 37 38 39 42 45 45 45 45 44 40 37 36 34 37 36
4 3 8 8 10 7 8 8 10 7 10 12 18 9 17 31 32 30 27 26 28 25 27 29 35 38 34 36 37 38 40 41 43 45 44 43 42 37 35 34 35 36 35 35
10 9 8 10 8 6 6 3 3 4 5 6 13 23 20 32 34 25 24 28 29 25 27 30 39 36 35 36 37 39 40 41 43 43 43 41 38 36 35 36 36 36 36 34
7 8 3 7 3 0 3 4 3 3 3 7 8 10 8 19 23 25 29 31 26 25 26 34 36 33 37 37 36 36 38 40 41 41 40 38 35 37 38 36 35 36 36 35
14 7 5 3 6 8 8 4 2 3 1 6 16 6 9 14 23 32 30 23 23 26 34 37 34 33 36 37 36 35 38 40 41 40 38 36 34 36 36 35 34 34 34 34
8 8 13 5 4 6 6 5 4 6 12 6 5 6 10 15 18 21 23 19 22 28 34 33 30 33 35 36 36 36 38 40 40 39 36 33 34 35 34 33 33 33 32 32
6 5 7 4 4 5 8 7 3 4 1 3 2 6 9 9 13 15 19 18 23 30 31 30 30 33 34 35 36 36 37 39 40 39 34 34 34 32 32 31 31 31 31 30
12 11 6 4 5 6 6 4 3 4 5 4 1 3 10 12 15 16 18 22 25 25 30 30 33 34 34 34 35 36 38 38 38 37 32 33 32 30 29 30 30 30 30 29
11 9 5 5 6 9 10 10 8 4 3 4 4 7 12 15 15 19 18 23 25 27 31 30 34 33 34 33 34 35 37 37 37 34 31 32 30 28 27 28 28 29 29 30
10 6 6 4 6 3 5 6 7 10 9 11 4 6 9 15 18 20 20 25 28 32 32 33 33 32 33 33 35 36 36 36 35 33 31 30 28 27 27 27 28 28 28 28
8 9 7 5 0 4 7 7 7 9 12 14 16 20 25 25 20 20 22 24 29 33 29 29 32 33 34 34 36 36 35 35 34 31 30 28 26 26 27 27 27 27 28 27
7 7 9 11 12 12 13 15 18 20 19 19 19 19 19 14 14 18 24 25 30 28 30 33 34 34 34 33 34 35 34 33 32 29 27 26 26 26 26 26 27 27 28 28
8 6 7 9 10 8 13 17 19 19 18 21 19 22 17 17 14 15 21 25 29 30 29 35 34 33 32 32 33 33 32 31 28 27 25 24 25 25 26 26 27 28 27 27
6 6 5 3 5 10 12 11 9 9 7 12 15 17 16 19 22 21 19 27 26 25 30 34 33 33 31 31 32 31 30 29 25 24 23 23 23 24 25 27 28 27 27 28
6 6 5 5 10 1 3 5 9 10 6 7 13 16 18 22 21 18 24 23 24 27 32 33 31 31 29 30 30 28 29 26 23 21 21 21 22 24 25 26 27 28 29 28
10 9 4 4 5 13 14 8 12 10 3 8 10 17 19 22 20 27 25 23 26 29 31 31 29 29 28 28 27 26 26 22 21 20 19 20 21 24 25 27 28 29 28 26
12 11 12 9 4 4 2 5 9 10 11 9 10 14 19 21 27 26 26 27 28 30 30 29 28 28 27 26 24 24 22 19 18 17 18 20 22 24 26 27 28 28 27 26
8 8 18 15 8 8 11 14 13 9 5 9 11 15 23 28 25 25 28 27 27 28 28 28 28 27 25 25 23 22 18 16 16 16 17 19 21 23 26 27 27 26 24 24
5 6 8 11 7 9 10 10 10 10 9 12 21 22 23 25 24 27 29 28 28 27 27 28 27 24 21 22 22 18 15 15 14 15 17 19 20 23 24 25 25 23 21 21
13 17 8 9 5 11 13 14 14 15 19 25 22 25 24 24 25 26 29 28 27 25 26 27 26 21 20 20 20 14 13 12 13 14 16 17 20 23 23 23 24 21 19 21
16 15 16 15 16 14 15 17 16 19 19 24 23 24 24 28 31 30 27 25 25 25 25 25 22 20 18 18 15 12 11 11 12 13 14 17 20 22 23 24 24 21 19 21
20 21 22 25 23 21 20 24 28 28 18 24 25 26 26 29 31 29 24 23 24 24 23 23 21 18 17 16 11 9 9 10 10 11 14 17 19 21 22 23 24 23 22 22
19 22 22 21 21 23 24 24 26 28 27 29 29 27 29 30 28 23 21 22 23 22 21 20 17 16 15 12 8 7 7 8 9 11 13 16 19 21 23 24 24 24 24 23
Wind_Direction
78 220 163 178 185 173 95 144 167 160 129 195 213 207 191 196 224 238 255 272 288 309 320 335 344 344 347 343 341 341 341 340 341 340 339 339 338 338 337 336 333 328 332 336
189 196 189 202 242 211 150 139 167 189 303 226 223 234 247 216 228 245 248 258 282 302 322 331 341 345 348 342 342 341 339 338 339 340 340 340 339 338 335 335 337 338 346 343
225 199 195 191 205 149 193 149 153 265 235 186 220 209 200 208 223 223 233 260 280 299 324 333 336 344 346 340 338 337 338 339 338 341 340 340 341 340 340 341 347 348 348 345
218 190 192 168 226 197 207 234 215 215 255 232 219 218 207 216 216 223 241 265 280 300 320 331 334 339 341 338 337 337 338 339 339 342 342 341 342 342 344 343 343 351 344 342
212 206 166 192 229 219 246 252 259 240 238 273 212 240 227 219 215 230 255 269 282 297 319 326 333 338 340 339 338 338 338 339 341 342 342 342 343 346 345 341 340 345 347 343
205 207 201 221 239 252 268 267 264 267 255 267 268 219 177 206 232 235 237 253 274 297 314 325 338 338 338 339 338 337 337 338 340 343 342 344 344 344 342 337 341 347 349 348
192 205 282 224 179 254 71 335 282 230 227 222 31 200 159 218 223 231 229 244 270 299 315 331 338 336 338 337 336 336 335 338 341 343 343 344 344 343 340 340 347 350 351 351
174 171 234 181 200 200 185 249 249 256 122 296 305 124 187 195 195 211 227 256 291 313 326 334 335 335 334 333 335 335 336 339 343 344 344 344 343 342 340 342 350 354 354 355
163 169 202 241 240 220 195 205 235 286 291 286 188 166 207 219 222 235 254 270 304 319 329 330 331 334 333 331 333 337 338 342 342 345 347 347 343 342 342 346 352 355 357 359
199 148 212 241 272 226 222 235 209 205 254 291 296 158 232 233 240 249 275 304 320 328 330 329 332 333 331 331 333 339 340 342 346 347 347 345 343 343 345 348 353 357 360 1
215 211 190 239 188 180 193 178 207 254 265 209 299 252 277 297 298 292 308 311 322 328 332 330 331 332 331 333 335 339 341 344 348 346 344 344 343 345 348 351 355 357 358 359
198 195 172 218 222 241 235 225 211 216 260 301 287 264 265 285 269 268 281 302 318 328 332 327 330 333 332 333 335 339 343 346 346 344 342 342 342 346 350 353 356 357 356 357
188 171 157 198 251 280 255 238 238 228 255 266 284 274 283 278 258 262 275 305 317 327 329 329 332 334 332 334 337 341 345 346 344 342 341 340 342 347 352 355 357 356 354 355
188 186 189 189 201 277 253 219 242 256 251 253 253 280 295 292 284 287 296 307 318 325 329 329 334 333 334 337 337 340 345 344 342 340 340 341 345 351 354 357 358 355 352 353
207 209 221 233 247 252 256 261 255 254 254 272 289 292 279 286 275 283 298 309 315 324 328 331 336 332 333 335 336 339 344 343 339 338 341 343 349 352 355 356 357 356 354 354
215 235 248 276 285 275 276 264 273 277 274 266 268 272 273 285 283 278 295 303 315 324 326 326 330 328 332 333 335 338 342 340 336 337 342 346 350 352 355 357 358 358 357 356
225 240 273 213 245 273 277 282 287 280 273 275 260 267 274 274 275 291 301 312 322 320 322 327 327 328 329 332 334 339 339 336 337 340 344 348 351 353 355 358 359 359 359 0
236 234 243 266 282 321 201 281 298 289 259 277 291 279 276 282 294 298 314 321 317 320 322 323 323 324 328 331 336 338 335 335 337 340 347 350 352 354 357 359 360 1 2 2
241 214 235 258 238 279 286 254 260 284 256 286 260 258 266 281 291 306 320 320 316 316 320 321 322 324 330 331 337 334 334 334 338 344 349 351 354 357 358 359 2 4 4 7
222 239 235 234 242 239 247 248 277 283 293 270 231 248 267 278 298 313 318 317 317 318 319 321 322 329 333 332 337 332 333 334 339 347 351 354 358 358 359 3 5 5 7 12
220 233 224 238 250 262 252 286 284 281 255 250 261 271 293 304 309 311 313 314 315 317 321 322 325 332 332 329 335 334 333 337 344 351 355 357 359 359 3 6 7 7 13 14
281 242 226 223 239 257 261 261 260 279 241 271 294 297 303 303 303 304 308 314 314 319 321 321 325 334 329 328 332 333 334 342 348 354 359 358 0 5 7 9 9 11 15 14
249 245 246 230 255 288 273 273 277 281 270 287 296 302 303 299 298 306 309 311 312 319 319 321 331 330 326 329 331 330 336 345 352 358 0 357 5 8 11 12 13 13 15 16
235 241 236 236 240 253 276 289 286 278 284 293 302 301 301 303 305 307 311 310 314 319 323 325 327 326 328 329 329 331 340 350 358 1 358 4 9 10 11 14 17 16 16 17
239 241 243 248 247 249 268 280 283 287 294 299 300 299 300 300 300 309 310 310 314 320 325 321 325 325 326 329 328 334 343 356 3 1 4 8 12 13 14 16 18 16 18 17
246 251 248 245 252 265 276 276 275 283 288 296 297 297 295 299 307 314 311 311 316 320 317 319 320 320 323 323 322 334 349 1 6 6 8 13 16 17 17 16 16 20 18 16